Theta_e
318 318 318 317 317 317 316 316 316 315 314 313 312 311 312 311 312 314 314 315 315 314 314 315 315 315 316 316 316 321 325 326 324 324 326 326 328 329 329 330 332 333 335 336 331 325 325 322 318 323 323 318 316 314 314 315 319 324 326 323 317 316 316 315 321 324 323 322 319 317 316 317 315 315 316 315 316 317 316 316 316 316 315 316 318 320
318 318 318 317 317 316 315 315 315 315 314 312 312 311 312 312 312 314 315 315 315 314 314 315 315 315 315 317 317 320 324 327 327 326 328 327 327 329 330 332 334 335 336 335 330 325 324 323 319 320 319 316 315 314 313 315 320 325 328 326 318 316 316 315 319 321 320 321 322 319 319 322 321 319 319 317 314 314 313 312 312 311 310 310 311 314
318 318 317 318 317 315 314 314 314 314 314 313 313 312 311 312 313 314 315 315 315 314 315 316 315 315 316 317 318 318 320 325 329 329 330 330 329 330 330 333 334 334 336 335 331 327 325 323 321 319 318 315 315 314 313 316 321 324 326 323 317 316 316 316 316 317 317 319 320 319 319 321 321 318 318 315 311 310 309 308 307 306 306 306 308 308
317 317 318 318 318 316 316 316 315 315 315 314 314 312 311 314 313 312 314 315 315 315 315 316 315 316 317 317 317 319 318 322 327 329 330 331 330 330 331 332 333 333 336 335 333 331 327 326 323 319 318 316 314 315 315 318 321 321 320 317 315 316 316 316 315 316 316 316 316 316 316 316 316 314 311 310 308 306 306 305 305 305 304 305 306 306
317 318 319 319 318 317 317 318 318 316 316 315 315 314 314 315 314 313 315 316 316 316 316 316 314 314 316 317 317 319 320 322 326 328 329 330 330 330 331 332 333 333 335 335 334 333 331 328 325 321 320 317 315 316 316 318 319 317 315 315 314 315 315 315 315 315 315 315 315 315 314 313 312 310 310 311 309 306 306 306 306 306 305 305 305 305
318 319 319 319 318 318 318 318 319 317 316 315 316 317 316 315 315 315 315 315 314 314 315 315 312 313 315 317 318 319 321 323 326 327 328 328 329 330 331 332 332 332 334 335 335 334 333 331 329 325 322 320 318 316 315 316 317 316 315 315 315 315 315 314 315 314 314 314 314 314 315 315 315 314 314 315 311 307 307 307 306 307 306 306 306 305
318 319 319 319 318 318 318 318 319 318 317 316 317 318 317 316 315 315 315 314 313 312 316 316 313 312 314 316 318 318 320 322 324 325 325 326 327 328 329 330 332 331 332 334 334 334 334 333 331 327 324 323 321 318 315 315 316 315 315 316 315 315 316 315 315 314 314 314 314 314 315 315 316 315 312 310 308 308 308 307 307 307 307 307 306 306
319 319 319 319 319 318 318 318 318 318 318 317 318 318 318 317 316 316 315 314 314 314 316 316 315 313 312 315 319 319 320 322 324 324 325 326 327 327 327 328 330 331 332 333 333 334 334 334 333 329 326 324 323 320 316 315 315 316 318 319 316 315 316 316 316 315 314 314 313 313 312 309 310 310 307 307 308 308 308 308 308 307 307 308 307 306
319 319 318 319 319 319 318 318 318 318 318 318 318 318 318 318 317 317 316 315 315 315 315 315 316 314 312 316 320 321 322 324 325 324 324 326 327 328 328 327 327 329 331 332 332 333 334 334 333 331 329 327 325 322 318 316 315 315 319 320 318 317 317 317 317 316 315 314 312 311 309 307 308 308 308 309 309 309 309 309 309 308 308 308 308 307
318 318 318 318 318 318 317 318 317 317 318 319 318 318 319 318 317 317 316 316 315 316 315 315 315 314 315 320 322 322 323 323 324 323 323 325 325 326 328 329 327 326 328 330 331 332 334 334 333 331 331 330 327 324 320 320 317 314 316 318 318 318 318 318 318 317 316 313 311 309 308 308 309 309 309 310 310 310 309 309 309 309 309 309 309 308
318 318 318 317 317 317 317 317 318 317 317 318 317 318 319 319 320 319 317 316 316 317 316 315 316 315 316 321 322 322 323 322 322 322 322 324 324 324 325 328 328 326 327 329 330 330 332 334 333 332 331 331 328 324 322 323 322 318 315 316 319 321 321 322 320 319 317 315 311 308 308 308 309 310 310 310 311 310 309 309 310 310 310 310 309 309
318 318 318 317 317 317 316 317 318 318 318 318 317 318 318 320 322 321 319 318 317 317 317 316 317 315 317 323 322 321 321 320 321 321 321 322 323 323 323 325 327 328 327 328 329 329 331 333 333 333 332 331 329 326 324 325 326 325 320 318 323 326 326 325 324 323 323 321 314 307 307 308 309 310 310 310 311 310 310 310 310 311 311 311 310 309
317 317 317 317 317 317 316 315 316 316 317 317 318 319 319 319 321 321 321 320 318 318 318 316 316 316 320 322 321 321 321 320 321 321 321 322 322 323 322 322 324 326 327 328 328 329 330 331 332 333 332 331 330 329 328 327 327 327 325 323 324 327 328 327 327 325 323 321 314 307 307 308 308 310 310 311 310 310 310 310 311 311 311 311 310 309
315 317 316 316 316 317 316 315 315 316 316 317 318 319 319 320 321 321 321 320 319 319 318 316 317 319 321 321 320 320 321 321 322 322 321 322 322 322 322 321 321 322 324 326 328 329 329 330 331 332 331 331 330 330 329 328 328 328 327 326 325 326 328 327 327 326 320 314 310 306 306 307 308 309 310 310 310 310 311 311 311 311 311 311 310 309
315 315 316 315 315 316 316 316 316 316 316 318 318 317 319 320 320 321 321 320 319 319 319 317 317 320 322 321 320 320 321 321 321 321 321 322 322 322 322 322 321 321 321 323 325 327 329 330 330 330 330 331 331 330 329 328 328 328 328 328 327 327 328 327 327 324 316 310 308 306 306 306 307 309 310 310 310 310 311 311 312 312 312 312 310 310
315 315 316 316 316 316 316 317 317 317 317 318 317 318 320 320 319 320 321 321 321 320 319 319 319 320 321 320 319 319 320 320 320 320 321 321 322 322 322 322 322 321 321 321 322 324 326 328 329 329 329 330 330 331 331 329 328 328 327 328 328 328 328 327 327 324 317 311 308 306 306 306 307 309 309 310 310 311 311 312 312 312 312 312 311 310
314 315 315 315 316 316 316 317 317 317 318 318 318 319 319 319 319 320 321 321 320 319 319 320 320 321 320 319 319 318 318 319 319 320 320 321 321 321 321 322 321 321 322 321 321 321 323 325 327 328 329 329 329 330 330 329 329 328 327 327 328 328 327 327 328 325 319 313 308 306 306 306 308 309 309 310 310 311 311 312 312 313 313 313 312 311
315 315 315 314 315 316 316 317 317 317 318 318 318 318 317 317 319 320 320 319 319 318 318 319 321 321 321 320 319 318 319 318 317 319 320 320 320 320 320 321 321 321 322 322 321 320 322 324 325 327 328 329 329 329 329 328 328 328 327 327 327 327 327 327 326 324 320 314 308 306 306 307 308 309 309 310 310 311 312 312 313 313 313 313 312 311
316 316 316 314 315 315 316 316 317 317 317 317 318 318 318 319 319 319 319 319 319 318 318 319 320 321 320 320 319 318 319 318 317 318 318 319 320 320 320 320 320 321 321 322 322 320 321 323 324 326 327 328 328 327 327 327 328 327 327 327 327 327 326 326 324 323 321 315 308 306 306 307 308 309 310 310 311 311 312 312 313 313 313 313 313 312
316 316 316 315 314 315 315 316 317 318 317 318 318 318 318 319 319 319 319 319 320 319 318 318 319 321 319 318 318 318 317 317 317 317 317 319 320 319 320 320 320 320 321 321 322 321 321 323 324 324 325 326 326 326 326 325 325 326 326 326 327 327 326 325 324 322 322 317 309 305 306 307 309 312 312 311 311 312 312 313 313 314 314 314 313 312
316 316 316 315 315 315 316 316 316 317 317 317 318 318 318 318 318 319 319 319 319 319 319 317 318 321 319 316 316 316 316 316 316 316 317 319 319 319 320 320 320 320 320 320 321 321 321 322 323 323 324 325 325 325 324 324 324 325 325 324 325 326 325 324 323 322 323 320 311 306 306 308 310 315 315 313 312 312 312 313 313 314 314 314 313 312
316 316 315 315 315 316 316 315 316 317 316 316 317 317 317 318 318 319 319 318 319 319 319 318 319 320 318 315 315 315 315 316 316 317 318 318 318 319 319 319 319 320 320 320 320 321 321 321 322 322 322 323 324 324 323 323 323 323 323 323 323 324 324 324 323 321 322 321 313 307 307 308 311 315 316 313 312 312 313 313 313 314 314 314 314 313
318 317 316 315 315 315 316 316 317 317 316 315 316 316 316 317 318 318 318 318 318 318 319 318 319 319 317 315 316 316 315 317 317 317 318 318 318 318 318 318 319 319 319 319 320 320 320 321 321 321 321 322 323 323 323 323 323 322 321 321 321 322 322 322 322 321 322 321 315 308 307 309 309 312 314 314 313 313 314 314 313 314 314 314 314 313
318 317 316 315 315 316 316 316 317 317 316 315 315 315 316 317 317 317 318 318 318 318 319 317 318 320 318 316 316 316 316 316 316 317 317 317 318 318 318 318 318 318 318 318 319 319 320 320 320 320 321 321 321 322 322 321 321 321 320 319 320 321 320 321 321 320 321 321 317 312 309 309 310 312 314 314 313 313 314 314 314 314 314 315 315 313
317 316 316 315 314 315 316 317 317 316 315 315 315 316 316 316 317 317 318 318 318 319 319 317 318 319 318 316 316 316 315 316 316 316 317 317 317 317 317 317 317 318 318 318 318 319 319 319 319 320 320 321 321 321 321 321 320 320 319 319 320 320 320 320 320 319 320 320 318 315 311 309 310 313 314 313 312 313 314 314 314 314 315 315 315 314
316 316 316 315 314 314 315 316 316 316 315 315 315 316 316 316 317 317 317 317 317 318 318 318 318 317 316 315 315 315 315 315 316 316 316 316 317 317 317 317 317 317 317 318 318 318 318 318 318 319 319 320 321 320 320 320 321 320 319 319 320 320 319 319 319 319 319 319 318 317 314 310 308 310 312 312 311 313 314 314 314 315 315 315 315 314
316 316 317 316 315 314 315 316 317 316 315 316 316 316 316 316 316 317 316 316 316 317 318 317 317 316 315 315 314 314 314 315 315 316 316 316 316 316 316 316 316 317 317 317 317 317 318 318 317 317 318 318 319 319 318 319 319 320 320 320 320 320 320 320 319 318 319 319 318 318 317 314 310 308 310 312 312 313 315 315 314 315 315 315 315 315
316 315 317 317 315 315 316 316 316 316 315 315 315 316 315 315 316 316 316 316 317 317 317 317 316 316 315 314 313 314 314 314 316 316 315 315 316 315 315 316 316 316 316 316 317 317 317 317 317 317 317 317 317 317 317 317 318 319 319 320 320 320 320 320 319 319 319 319 319 318 318 317 314 311 309 312 314 315 315 315 315 315 315 315 315 315
316 315 316 317 315 315 316 315 315 315 315 315 315 315 315 315 315 316 315 316 316 316 316 316 315 315 314 313 313 313 314 315 315 315 315 315 315 315 315 315 315 315 316 316 316 317 317 316 316 317 317 317 316 316 316 316 316 317 318 318 319 320 320 320 320 320 319 319 319 319 318 318 317 315 313 312 314 315 316 316 315 315 315 315 315 315
316 315 316 316 315 315 315 315 315 315 315 314 314 314 314 314 315 315 315 315 315 315 315 314 314 314 313 312 313 313 314 315 315 315 314 314 314 314 314 315 315 315 315 315 315 316 316 316 316 316 316 317 317 317 316 316 316 316 317 317 318 319 320 321 321 320 320 320 320 319 319 318 318 319 317 314 312 315 316 316 315 315 315 316 316 315
315 315 316 316 314 314 315 315 315 314 314 314 314 313 313 314 314 314 314 314 314 314 314 314 314 314 312 313 313 313 314 314 314 314 314 314 314 314 314 314 314 314 314 315 315 315 315 315 316 316 316 317 317 317 316 315 315 315 316 316 317 317 318 319 320 320 321 321 320 320 320 320 319 320 319 315 311 314 316 316 315 316 315 316 316 315
314 314 316 315 313 313 314 315 314 314 314 314 314 314 314 314 313 313 314 314 314 314 314 313 313 312 312 313 313 313 313 314 314 314 314 314 314 314 314 314 314 314 314 314 315 315 314 315 315 315 316 316 316 317 316 315 314 314 315 315 316 316 317 318 318 319 320 321 320 321 321 320 320 320 320 317 313 314 316 316 315 316 315 315 315 315
313 313 314 313 312 312 313 314 314 314 314 314 315 315 314 314 314 313 314 314 314 314 313 312 312 312 312 312 312 312 313 313 313 313 313 314 314 313 313 313 314 314 314 314 314 314 315 315 315 315 315 315 315 315 315 314 314 314 314 314 315 316 316 317 317 318 319 320 320 321 321 321 320 320 319 318 316 315 316 316 315 314 314 314 314 314
313 313 313 312 312 313 313 313 314 314 314 315 315 314 314 314 314 313 314 313 314 314 313 312 312 312 312 312 312 311 312 312 312 312 313 313 313 313 313 313 313 313 313 314 314 314 315 315 315 315 314 314 314 314 313 314 315 314 314 314 315 315 316 316 317 317 318 320 321 321 321 321 320 320 319 319 318 315 314 315 315 314 314 314 314 315
313 312 312 311 311 312 313 313 313 314 315 315 315 314 314 314 313 314 314 314 314 313 313 313 312 312 311 312 311 311 312 312 312 312 312 312 312 313 313 312 312 313 313 313 314 314 314 315 315 315 314 314 315 315 315 315 315 314 314 314 314 315 315 315 316 317 317 319 320 320 321 320 320 320 319 318 318 316 313 313 314 315 315 315 315 314
312 311 311 311 310 311 312 312 312 314 314 315 314 314 314 313 314 313 313 314 314 313 313 313 312 312 312 311 311 312 312 312 312 312 312 312 312 311 311 311 312 312 312 313 313 313 314 314 314 314 314 314 315 316 316 315 314 314 314 314 314 314 314 314 315 317 317 318 319 319 320 320 320 319 318 318 318 316 313 312 312 314 315 315 315 313
312 311 311 311 310 311 310 310 311 312 313 314 314 314 313 313 313 312 312 312 314 314 313 312 312 312 312 311 311 312 312 312 312 312 312 311 311 311 310 311 311 312 312 312 312 313 313 313 313 314 314 314 315 316 316 315 315 315 315 315 315 314 314 315 316 317 317 317 318 319 319 318 318 318 318 318 317 316 315 314 313 315 316 316 315 312
313 312 311 310 310 310 309 310 310 309 311 313 314 314 313 313 314 313 312 312 313 314 313 312 312 311 311 311 311 312 312 312 311 311 312 311 311 311 311 310 311 311 311 312 312 312 312 313 313 313 314 314 315 315 314 315 315 316 316 317 316 315 316 316 317 317 317 317 317 317 317 317 317 317 318 318 317 317 316 315 315 315 315 315 314 311
313 312 311 310 310 310 309 309 309 308 309 313 314 313 313 313 314 314 312 312 313 313 312 312 312 312 311 311 311 312 312 311 311 311 312 311 311 311 310 310 311 311 311 311 311 310 311 312 313 313 314 314 314 314 314 314 315 315 316 316 316 316 317 317 316 316 317 316 316 315 315 316 316 316 317 317 317 317 316 316 315 315 315 314 312 310
313 312 311 310 310 310 309 309 309 308 310 313 314 313 313 313 313 313 312 311 312 312 311 312 312 312 311 312 312 312 311 311 311 312 311 311 311 311 310 310 311 310 310 311 310 310 310 311 311 312 312 313 313 313 313 314 314 315 315 315 316 316 317 316 315 314 314 315 315 315 315 314 315 315 316 316 316 316 315 315 314 314 314 313 311 309
312 311 310 310 310 310 309 308 309 309 311 313 314 313 313 314 313 312 311 311 312 312 311 312 312 312 312 312 312 312 312 311 311 311 311 311 311 310 310 310 310 310 310 310 310 310 310 310 310 310 311 311 312 312 312 313 313 313 314 314 315 316 316 316 315 314 314 314 314 314 314 314 314 314 315 315 316 315 315 314 313 313 313 312 311 309
311 311 310 310 310 310 310 309 309 310 312 313 313 313 313 313 312 312 312 312 312 311 311 312 312 312 312 312 311 311 312 312 311 311 311 310 310 310 310 310 310 310 310 310 310 310 310 310 310 310 310 310 311 311 311 311 312 312 312 313 314 314 314 314 315 314 314 314 313 313 313 314 314 314 314 314 315 315 315 315 314 314 313 312 311 309
310 310 310 310 310 310 310 309 309 310 312 313 313 313 313 312 312 312 313 312 311 311 311 311 311 311 311 311 311 311 312 311 311 311 311 310 310 310 310 310 310 310 310 310 310 310 309 309 309 309 309 310 310 310 310 310 311 311 311 312 312 312 312 312 313 314 314 314 313 313 312 313 313 313 314 314 314 314 315 315 314 314 313 312 311 309
311 309 309 311 310 309 309 310 310 311 313 313 312 312 312 312 312 312 313 312 311 311 311 310 311 311 311 311 311 311 311 311 311 311 310 310 310 310 310 310 310 310 310 309 309 309 308 308 308 308 308 309 309 309 310 310 310 310 310 311 312 311 311 312 312 313 313 314 313 313 312 312 312 312 312 313 313 314 314 314 314 313 312 312 311 310
312 312 312 311 310 310 310 311 311 312 313 313 312 312 312 312 312 312 312 312 311 311 310 310 310 310 310 311 311 311 311 311 310 310 310 310 309 309 310 310 310 309 309 309 308 308 307 307 307 307 307 307 308 308 309 309 309 309 310 310 310 311 311 311 311 311 311 312 313 312 311 310 310 310 311 311 312 313 313 313 313 312 311 311 311 310
311 312 311 310 311 311 311 311 312 312 312 312 312 312 312 312 312 312 312 312 311 311 310 310 310 310 310 310 311 311 310 310 310 310 309 309 309 309 309 309 309 308 308 308 307 307 307 307 307 307 306 306 306 307 308 308 309 309 309 309 310 310 310 310 310 309 309 310 312 312 311 310 310 310 310 310 310 311 312 313 313 312 311 311 311 311
311 311 310 310 311 311 311 311 312 312 312 312 312 312 312 312 311 312 311 311 311 310 310 311 311 311 311 311 311 311 310 310 310 309 309 308 308 308 308 308 308 308 307 307 307 307 308 307 306 306 306 306 306 306 306 307 308 308 309 309 309 309 309 309 309 308 308 309 311 311 312 311 311 310 310 310 311 311 311 312 312 312 312 311 311 311
312 310 309 310 311 311 310 311 312 312 311 312 311 311 311 311 311 311 311 311 311 311 311 311 311 311 311 311 311 311 310 310 309 308 308 308 308 308 308 308 308 307 307 307 307 307 307 307 307 306 306 306 305 305 305 306 306 307 308 308 309 309 309 309 308 307 307 309 310 311 312 312 311 310 311 311 312 312 312 312 312 312 312 312 311 311
311 309 309 310 310 310 310 311 311 311 311 311 311 311 311 311 311 311 311 311 311 311 311 311 311 312 312 311 311 310 309 309 308 308 307 307 307 307 307 307 307 307 307 307 307 307 307 307 307 307 307 306 305 304 305 305 306 306 307 308 309 309 309 308 307 307 308 309 310 310 311 311 311 311 311 312 312 312 312 312 311 311 312 311 311 311
310 309 310 311 310 309 310 310 311 310 310 311 311 311 311 311 311 311 311 311 311 310 311 310 310 311 311 311 310 309 308 308 308 307 308 308 307 307 307 307 307 307 307 307 307 307 307 307 307 307 307 306 304 304 304 305 305 306 306 307 308 309 308 307 307 308 309 309 310 310 310 310 311 311 312 312 312 313 313 312 311 311 311 311 311 311
310 310 311 310 309 309 310 310 310 310 310 311 311 311 311 311 311 311 311 310 310 310 310 310 310 310 310 310 309 308 308 308 308 308 308 308 307 307 307 307 306 306 306 306 306 306 307 307 307 307 306 305 304 304 304 304 305 305 306 306 307 308 308 307 308 308 308 308 309 310 310 309 310 310 311 312 312 312 312 312 311 311 311 311 311 311
Wind_Speed
5 3 1 3 5 6 6 4 6 5 4 6 6 6 7 6 5 5 2 2 1 6 7 7 8 8 8 6 3 3 7 10 12 14 14 15 16 15 16 14 12 11 10 11 14 14 14 14 14 13 12 13 13 13 13 12 11 9 8 10 11 11 11 11 10 8 9 10 9 9 9 9 8 8 7 7 6 4 3 2 2 3 4 4 5 4
5 2 4 6 6 7 6 3 3 4 5 6 6 6 7 7 6 4 1 3 2 6 5 4 6 8 8 6 1 2 6 8 9 12 13 14 14 13 14 13 11 10 10 11 14 15 16 16 16 16 15 15 15 15 15 13 11 9 8 9 11 11 10 10 10 9 10 9 8 7 8 7 7 7 6 4 3 2 1 2 3 4 5 5 5 5
4 2 6 6 5 4 3 2 2 5 5 6 5 5 5 5 5 3 2 4 4 5 3 3 6 8 6 4 2 3 6 6 6 7 10 12 13 12 12 12 12 12 11 11 13 16 18 18 18 18 17 17 16 16 16 14 11 10 9 10 11 11 11 10 10 10 9 7 7 6 6 6 6 6 5 4 3 3 3 3 4 4 4 4 4 5
1 5 7 6 3 3 1 3 1 4 5 5 4 5 4 2 3 5 5 6 4 4 4 2 5 7 4 3 3 2 3 3 3 3 5 8 10 10 10 10 12 12 11 11 13 15 17 18 19 20 19 19 18 18 17 14 13 12 11 11 11 11 11 10 9 9 8 6 5 5 4 5 4 4 4 4 4 4 4 4 4 5 4 4 3 3
4 7 6 4 3 4 4 3 5 5 3 1 2 5 5 3 4 5 1 4 5 5 5 5 7 7 5 5 4 4 2 1 2 2 1 2 5 6 5 6 7 9 9 9 12 14 16 18 19 20 21 20 19 19 18 16 15 14 13 12 12 11 11 10 9 9 8 6 5 4 2 2 3 4 4 4 4 4 5 5 6 6 6 6 5 4
6 7 5 4 3 4 5 4 8 8 5 1 4 6 8 7 6 6 4 5 6 6 5 4 8 6 5 5 2 2 3 6 8 8 7 5 2 3 4 5 6 8 8 8 10 12 15 17 18 20 21 20 20 19 19 17 16 15 14 13 13 12 12 11 10 9 9 7 5 4 2 2 2 3 4 4 3 4 5 5 6 7 7 7 7 6
4 5 4 5 5 6 6 4 8 10 7 3 4 8 8 8 7 7 7 6 7 6 3 2 8 5 6 4 1 2 5 10 11 13 14 12 9 6 4 6 7 9 10 10 10 12 14 16 17 20 21 21 20 20 20 19 17 16 15 15 14 13 13 12 11 10 9 8 6 5 4 4 4 4 4 4 4 5 5 5 6 7 7 8 7 6
4 6 6 7 6 5 5 4 8 11 7 3 7 9 9 8 7 7 8 7 6 5 2 5 8 6 6 3 5 2 6 10 12 14 16 17 16 14 10 6 8 9 11 12 13 14 14 16 18 20 21 22 21 20 21 20 18 17 15 14 14 14 14 13 12 11 10 9 8 6 6 6 6 6 5 5 5 5 4 5 6 7 7 7 7 6
5 8 8 9 6 4 5 5 8 10 7 5 10 10 8 7 8 7 7 8 5 5 6 7 7 7 6 3 6 4 6 11 13 14 16 18 19 18 16 12 9 9 11 12 13 15 15 17 19 19 19 20 21 21 20 20 20 19 15 14 15 15 14 13 13 12 11 11 10 8 7 8 7 7 6 5 5 4 4 5 6 7 7 7 7 7
5 7 9 9 6 6 8 6 7 8 7 7 12 12 9 8 8 7 6 6 5 6 7 4 3 6 3 3 5 6 8 10 11 12 14 18 20 19 19 18 14 8 8 11 12 13 14 16 18 19 18 18 20 21 20 19 20 20 19 17 17 16 15 14 14 13 13 12 11 9 9 9 9 8 7 6 5 5 5 6 6 7 8 8 8 7
5 3 5 8 7 7 9 7 4 5 7 9 11 11 8 6 7 8 6 4 6 7 4 2 3 6 4 3 5 6 7 9 9 9 13 17 19 20 20 20 19 14 6 5 8 10 12 14 15 17 18 18 19 22 22 18 16 19 20 19 17 16 15 14 14 14 13 12 12 11 10 11 11 10 8 7 6 5 6 6 7 7 8 8 8 8
4 2 3 5 7 11 10 7 3 3 6 8 7 6 6 4 5 7 4 5 8 5 3 4 3 5 4 3 6 6 8 9 9 10 13 16 18 20 21 21 21 18 13 6 3 5 9 11 13 14 16 17 17 20 20 17 14 15 19 20 16 14 12 12 12 13 12 11 12 13 12 12 12 11 9 8 7 7 7 7 7 7 7 7 7 8
1 3 6 3 4 11 12 7 4 2 4 6 4 3 5 2 1 3 3 4 7 3 4 5 4 2 2 5 6 7 9 10 11 12 13 15 17 18 19 20 20 20 16 12 8 4 5 7 10 12 14 15 15 16 17 16 14 14 16 19 17 14 13 11 11 12 11 11 13 14 14 13 13 12 11 10 8 8 8 7 7 7 6 6 7 7
1 5 7 6 3 10 12 7 6 5 5 5 4 3 3 2 2 3 3 3 3 1 4 3 2 2 4 5 6 7 9 12 13 14 15 16 16 16 17 18 19 20 19 16 13 10 6 6 6 9 12 12 14 16 16 16 16 15 15 17 18 17 14 13 12 12 13 14 15 15 15 14 14 13 12 11 10 10 9 8 7 6 6 6 7 7
4 2 7 9 6 10 10 6 7 8 7 5 3 4 3 2 2 2 2 2 1 2 5 5 3 3 4 4 7 9 9 12 14 15 16 16 17 16 16 17 18 19 19 18 16 14 11 8 6 5 8 9 13 16 14 14 17 17 16 17 18 17 16 16 14 13 16 17 16 16 15 14 14 13 13 12 12 11 10 9 8 7 6 5 6 7
6 2 7 6 5 8 7 6 8 8 5 2 2 4 2 1 3 3 3 4 4 1 3 4 3 3 4 4 9 12 11 14 17 19 20 19 19 18 16 18 19 18 18 18 17 16 15 11 7 5 6 7 10 14 13 13 16 17 15 16 17 17 17 17 14 14 17 17 17 17 16 16 15 15 15 14 14 13 11 10 8 6 5 5 6 7
5 3 6 5 4 6 6 6 8 8 5 2 2 3 3 3 4 5 3 1 3 3 1 2 3 5 5 3 9 14 13 16 19 20 21 21 21 20 19 19 19 19 18 16 16 17 17 14 10 6 6 6 8 11 12 12 14 15 15 16 16 16 17 17 14 14 16 17 18 18 17 17 17 17 16 15 14 13 12 10 8 6 4 4 5 6
5 2 6 6 5 5 3 5 6 8 7 4 2 4 5 4 3 4 3 1 3 2 1 2 2 3 2 1 9 14 14 16 17 18 19 20 21 21 20 20 20 19 18 16 16 17 18 18 12 7 5 6 6 8 10 11 12 13 15 15 15 16 19 20 18 17 17 17 18 18 18 19 18 18 17 16 15 14 12 10 8 6 4 3 4 6
4 3 5 4 5 4 3 4 2 6 7 4 3 2 3 3 1 1 2 3 3 1 1 2 3 5 3 3 8 11 12 13 14 14 16 18 20 20 19 20 20 19 18 17 16 16 18 19 15 9 5 5 5 5 8 10 11 12 12 14 16 18 19 19 18 19 19 17 18 18 19 19 19 19 18 17 17 15 12 10 8 6 4 3 4 5
3 3 3 4 2 1 3 4 3 4 5 2 1 1 3 3 3 3 2 3 4 3 1 1 3 3 5 5 8 10 10 11 11 11 12 14 17 18 18 19 19 18 18 18 17 16 16 18 18 12 6 5 6 7 8 10 12 12 11 12 15 16 16 15 17 21 22 19 18 20 19 19 19 18 18 18 17 15 12 11 8 6 4 2 4 4
2 2 2 3 1 2 2 6 6 6 6 4 2 4 5 3 2 1 1 2 3 3 3 2 1 4 5 4 6 9 9 10 10 10 11 12 14 15 16 17 17 17 17 17 16 15 14 15 17 15 9 6 7 8 8 8 9 10 10 9 11 12 12 15 18 21 22 21 20 20 20 20 20 19 18 18 17 14 13 11 9 7 4 2 2 3
2 2 2 2 1 1 3 5 6 7 7 6 5 5 5 4 3 3 1 1 2 3 3 3 1 4 4 3 5 8 8 9 10 11 11 12 13 14 14 15 15 16 16 16 15 15 14 13 14 15 13 8 6 8 8 6 5 6 7 7 8 9 10 14 17 17 19 21 21 21 21 21 21 20 19 18 17 15 14 13 10 8 5 2 1 2
3 3 2 1 3 3 4 3 4 5 4 4 5 5 5 4 4 4 2 2 2 1 1 3 1 4 2 3 5 7 8 10 11 12 11 11 12 12 13 14 14 15 15 15 15 14 14 13 12 12 13 12 8 7 7 7 5 5 5 6 7 8 11 14 15 15 18 21 22 22 22 22 22 22 20 19 18 15 15 14 12 9 6 4 2 2
1 2 2 0 2 2 4 3 1 1 2 2 4 5 5 4 3 4 4 3 2 1 1 3 0 3 2 4 6 7 9 10 12 12 11 11 11 12 13 13 13 14 14 15 15 15 14 13 12 12 12 13 11 8 6 6 7 7 7 8 8 7 10 13 12 14 19 24 24 23 23 23 23 23 22 20 19 17 17 15 13 11 8 5 4 4
1 2 3 2 1 3 4 3 3 2 1 4 4 5 5 4 3 2 2 3 1 2 4 4 2 4 2 3 6 8 9 10 12 13 12 11 12 13 14 14 13 13 14 14 15 15 15 14 13 13 12 12 12 11 8 5 5 7 8 10 11 9 8 10 10 13 20 25 25 25 25 25 24 24 24 23 21 19 18 17 15 12 9 7 5 5
2 2 4 4 4 2 2 2 1 1 2 2 3 5 5 4 3 3 3 3 1 2 3 3 3 3 2 4 7 9 10 10 12 13 12 12 13 13 14 14 13 13 13 14 14 15 15 15 15 14 13 12 12 12 12 9 5 5 7 9 11 10 9 10 11 14 19 23 25 26 26 26 27 27 26 25 24 22 19 19 17 14 11 8 6 7
1 2 4 5 5 5 5 4 3 3 4 2 2 4 5 5 5 5 3 2 2 1 1 3 3 4 4 6 9 10 10 10 10 12 13 13 13 14 14 14 13 12 12 13 14 15 15 15 15 15 14 13 12 12 13 13 10 7 5 6 7 8 10 11 12 15 18 21 25 27 27 26 28 29 28 26 24 23 21 20 19 16 12 10 8 8
3 1 3 4 4 4 4 2 1 2 2 1 1 3 4 4 5 4 3 4 4 3 1 4 4 5 5 7 9 9 9 9 9 11 12 12 13 14 14 14 14 14 13 13 14 15 15 14 14 14 15 14 13 12 11 11 12 11 9 7 5 7 10 11 12 15 17 20 25 27 27 25 26 29 29 27 25 23 22 21 20 17 14 11 9 8
4 1 1 2 2 2 2 1 1 1 1 1 1 2 3 3 4 4 4 5 6 4 3 4 4 5 6 7 8 9 9 9 9 9 10 11 13 14 15 15 15 15 15 15 15 15 14 14 14 14 14 13 13 13 12 10 10 10 10 10 8 5 7 9 11 14 16 17 19 22 23 24 25 26 27 28 27 25 24 23 21 19 16 12 10 9
4 1 2 3 2 1 1 1 2 3 3 3 1 0 1 2 3 3 3 4 4 3 3 4 4 3 5 6 8 9 9 10 9 8 9 11 13 15 15 15 15 15 15 15 15 15 15 15 15 15 14 13 13 13 12 12 11 10 9 10 10 7 5 7 10 13 15 16 16 17 18 19 21 21 22 28 31 29 26 25 23 21 19 14 11 11
3 0 3 4 4 1 1 2 3 3 2 2 2 1 1 1 1 1 2 2 2 1 2 4 4 1 5 7 9 9 9 10 9 10 10 11 12 14 15 16 16 16 16 16 15 15 16 16 16 16 17 15 13 12 12 12 12 12 12 11 10 8 6 5 7 10 13 16 16 15 15 17 19 19 20 26 33 31 28 27 25 22 20 16 13 13
3 0 3 4 5 1 2 4 4 3 3 3 3 3 1 2 2 2 2 2 3 3 3 4 3 2 6 9 10 10 10 11 11 11 11 11 13 14 15 16 16 16 17 17 17 16 16 16 16 17 18 17 15 13 13 13 12 12 13 12 10 9 8 7 6 8 10 14 14 14 16 17 18 18 18 22 30 32 31 29 27 24 21 19 16 16
3 2 1 3 4 0 2 4 4 4 6 5 3 3 1 1 1 2 3 3 3 3 3 3 3 5 8 9 9 9 10 11 12 12 11 11 13 14 15 16 16 16 17 17 17 17 17 17 17 17 18 17 16 15 14 14 13 12 11 11 10 10 9 8 8 8 8 11 12 12 15 17 19 20 19 19 24 31 32 29 27 26 23 20 21 21
2 3 1 1 4 1 3 4 5 6 5 1 3 3 1 2 2 3 4 4 4 4 3 4 4 6 8 8 9 10 10 11 12 10 8 9 12 13 15 15 16 16 17 17 17 18 18 18 18 18 18 17 17 16 15 14 14 13 11 11 11 11 10 8 9 9 7 9 11 12 13 15 18 19 19 20 21 26 32 31 27 26 24 22 24 23
1 2 1 1 3 2 2 4 5 4 1 3 4 3 1 1 2 4 6 5 5 5 4 4 5 6 8 9 10 10 11 11 9 6 6 9 11 12 14 15 15 16 16 17 17 18 18 19 19 19 19 18 17 17 16 15 14 13 13 12 11 11 10 10 9 8 6 6 8 10 12 14 17 16 18 22 20 21 28 31 29 27 26 25 25 23
1 1 1 1 2 1 2 5 3 1 2 5 4 3 3 2 2 4 6 4 4 3 4 4 5 7 8 9 10 10 12 10 4 3 8 11 11 12 13 14 14 15 15 16 17 17 18 18 18 19 18 17 16 16 15 15 15 14 13 13 12 11 10 10 10 8 7 6 5 7 8 11 13 13 15 18 18 18 24 29 30 30 28 26 24 21
2 2 2 2 2 2 4 5 3 3 3 5 4 3 2 2 1 3 6 2 4 2 4 4 6 7 8 10 10 11 12 9 1 4 10 12 12 12 12 12 13 13 14 15 15 16 17 17 17 18 17 17 16 15 15 16 15 14 13 13 12 11 10 9 8 8 8 8 7 5 6 8 9 11 12 13 14 17 22 26 29 30 27 26 23 22
2 3 3 3 2 2 5 5 4 5 3 3 3 3 2 1 1 2 6 3 5 4 2 4 6 7 8 9 10 11 12 7 2 4 10 13 13 13 12 13 13 13 13 14 15 17 17 17 18 17 17 17 16 16 16 16 15 14 13 12 12 12 10 8 7 7 7 8 7 6 6 7 6 9 12 12 12 15 19 22 27 29 29 26 23 23
3 3 4 4 3 3 5 5 4 4 1 3 4 4 3 2 2 3 6 3 5 3 3 4 6 7 7 8 9 9 8 5 3 6 11 13 13 12 12 13 13 13 13 13 15 17 18 18 18 18 17 17 17 17 17 16 15 14 13 12 12 12 11 10 9 8 8 8 7 6 7 6 5 6 10 14 15 16 16 18 23 28 29 25 22 24
4 3 4 5 4 2 3 5 4 2 1 4 5 4 3 2 3 5 5 1 4 1 3 4 6 7 7 8 8 7 5 4 6 9 12 13 12 11 12 12 13 14 14 14 15 16 17 17 18 18 18 18 18 18 17 16 16 15 14 14 13 12 12 12 12 12 11 11 10 9 8 7 6 5 7 10 14 17 18 19 22 26 27 25 25 27
4 3 3 4 4 1 2 5 5 1 3 6 6 5 5 4 4 6 3 4 3 1 2 3 6 7 7 8 8 6 6 6 8 11 12 12 11 11 12 12 13 14 14 15 16 16 17 17 17 18 18 18 17 17 16 16 17 16 15 15 14 12 13 13 13 15 15 14 14 12 11 10 9 8 7 7 9 14 18 21 23 25 26 26 26 27
2 3 3 3 3 2 2 4 6 2 3 6 7 6 5 4 3 2 3 4 2 2 3 4 6 7 7 8 8 8 9 10 10 12 12 12 12 13 12 13 14 15 16 16 16 16 17 18 18 18 18 18 18 17 16 17 18 17 16 16 15 14 14 13 13 14 15 16 17 16 15 14 13 12 11 9 8 10 14 19 22 24 26 27 26 25
1 2 3 2 1 2 3 4 5 3 4 10 9 6 6 5 4 6 4 3 3 3 5 5 6 6 7 8 8 9 11 12 12 12 13 14 14 14 14 14 15 15 16 17 17 17 18 18 18 18 18 18 18 17 17 18 18 17 17 17 16 15 15 14 13 13 13 14 16 17 17 16 15 15 14 13 12 11 12 15 19 21 25 27 27 25
2 3 4 1 2 2 3 2 1 3 6 12 9 3 4 7 6 7 7 7 5 6 6 6 6 7 8 9 10 11 12 13 13 13 14 16 16 16 16 16 16 16 16 16 16 17 17 18 18 19 19 18 18 18 17 17 17 18 19 18 16 16 15 14 14 13 13 14 15 16 17 17 16 16 16 16 16 15 15 17 20 22 24 28 29 27
2 1 4 3 2 3 6 5 3 2 5 10 9 7 8 9 10 9 8 8 8 7 7 7 8 9 9 10 11 12 13 13 13 14 16 17 17 17 16 16 16 16 15 15 15 16 16 17 18 18 19 19 20 19 18 17 18 19 19 18 17 16 15 14 14 14 14 14 14 15 16 17 17 18 17 17 18 18 18 21 24 23 23 26 29 29
2 2 2 3 3 4 8 9 9 8 8 9 9 9 9 9 10 9 10 10 9 8 8 9 10 10 11 11 12 13 14 14 14 16 17 17 16 16 16 16 16 16 16 16 16 16 17 18 18 19 19 20 20 20 19 19 19 19 19 19 18 16 15 14 16 17 17 16 15 15 16 17 17 18 19 19 20 19 19 23 25 24 24 27 30 31
5 5 4 5 4 3 4 4 4 6 7 7 8 8 9 10 10 10 10 10 10 10 11 10 11 11 11 12 12 13 14 14 15 16 16 16 16 16 17 17 17 17 18 18 18 18 18 19 20 21 21 21 20 20 20 20 20 20 20 20 19 18 16 16 17 19 19 18 16 15 15 15 16 18 19 19 20 20 21 23 24 23 26 29 31 32
3 4 4 7 7 6 7 7 6 6 7 8 8 9 9 10 8 8 9 10 11 12 12 11 11 11 11 12 11 12 13 14 15 15 16 16 17 17 18 18 19 19 20 20 20 21 21 21 21 21 22 22 22 22 22 22 22 22 22 21 20 19 17 16 18 21 20 19 17 15 14 15 16 17 18 18 18 17 19 21 22 22 26 30 33 35
3 3 3 5 6 7 9 9 8 8 9 10 11 10 9 7 7 7 9 10 11 13 12 11 11 10 11 11 11 11 13 15 15 15 16 18 18 19 20 21 21 22 22 22 23 23 23 23 22 20 20 22 24 24 24 23 22 22 22 22 20 18 17 17 19 20 21 19 17 16 15 14 15 17 18 18 17 16 17 19 20 22 24 28 33 37
4 5 5 4 5 5 4 4 4 5 6 6 6 7 7 7 7 9 10 10 10 11 11 10 9 9 9 10 11 13 14 15 15 17 18 19 20 21 22 22 22 23 23 24 24 23 22 22 21 19 19 21 24 26 26 24 23 22 22 21 20 18 18 18 18 19 19 18 16 16 16 16 15 15 16 17 16 17 17 19 21 23 23 26 31 34
8 7 6 5 6 6 6 6 5 6 8 8 6 7 7 7 8 10 10 10 10 10 9 9 10 10 10 10 12 13 14 15 17 18 19 20 21 21 21 21 22 23 23 23 23 22 21 21 19 18 19 22 25 27 28 26 24 23 22 21 20 19 19 19 18 18 18 17 17 17 18 18 17 17 16 15 15 16 17 18 22 25 25 27 30 31
Wind_Direction
257 234 138 20 16 5 351 312 289 295 279 255 243 237 240 245 242 238 226 101 254 263 246 241 252 253 253 249 214 188 208 220 227 222 219 215 209 207 206 200 193 187 177 186 203 206 209 216 207 190 185 187 179 172 175 175 173 169 162 159 156 153 149 143 138 138 137 130 124 119 115 113 109 105 100 94 94 92 75 44 358 342 338 333 336 337
257 267 54 24 9 6 352 325 274 255 240 236 234 231 227 230 232 234 231 115 172 250 231 207 250 246 239 242 196 212 228 225 228 223 220 219 214 209 206 199 190 180 173 186 200 204 208 215 213 200 192 191 187 180 180 181 177 171 168 166 159 154 152 148 145 145 142 137 133 128 121 119 116 111 110 104 99 96 46 352 334 331 334 334 330 324
225 53 42 13 2 2 3 23 255 238 232 234 229 234 232 220 228 226 162 142 176 245 221 167 248 246 230 242 234 236 247 239 232 231 224 219 215 210 204 199 193 187 181 184 195 204 209 213 216 209 198 194 192 187 185 185 184 177 174 173 164 159 160 158 156 154 154 152 149 143 133 129 128 125 124 117 94 74 50 23 8 359 354 354 342 329
221 41 26 2 340 296 333 62 290 249 225 241 247 243 236 159 234 225 156 151 179 245 271 267 253 248 222 206 196 210 258 245 225 228 225 224 223 220 214 207 202 199 193 188 192 199 204 209 215 215 205 198 196 195 190 186 188 184 179 177 170 167 170 171 171 170 171 173 165 159 146 138 135 123 113 95 78 66 54 46 37 26 22 21 10 356
48 29 7 331 309 300 301 20 348 300 249 224 345 306 306 7 296 273 166 178 203 215 241 261 248 235 217 198 158 128 132 72 36 10 323 252 245 244 239 225 217 212 206 199 196 196 199 205 213 217 213 205 200 200 197 190 190 188 182 181 178 178 181 182 184 183 183 183 181 176 156 128 113 100 94 85 75 66 58 54 51 48 45 43 39 39
54 25 349 310 322 331 310 358 8 330 290 231 51 5 340 336 309 290 274 243 238 220 191 249 259 226 199 208 161 105 82 63 50 39 32 25 344 275 255 246 238 229 223 215 206 201 201 203 210 216 216 211 205 203 203 198 194 189 185 187 187 187 190 192 194 195 193 193 192 184 157 115 113 116 116 114 98 77 69 63 62 61 58 54 49 45
48 24 352 329 321 323 313 339 12 347 296 262 34 10 338 317 300 282 269 255 259 252 159 228 267 240 203 201 72 52 69 61 52 47 36 26 17 352 300 261 245 235 228 221 214 209 205 202 207 215 219 216 209 205 206 205 199 192 189 192 193 194 197 198 201 205 203 201 202 190 172 160 157 158 147 129 110 91 79 73 72 70 65 63 57 48
29 24 14 356 329 318 329 342 2 345 304 308 13 348 324 309 300 290 275 261 270 279 219 230 257 266 239 177 68 67 87 59 40 40 33 24 20 11 357 316 269 246 233 224 217 211 206 205 208 214 219 220 217 211 208 208 205 199 194 196 197 200 204 206 207 210 208 206 206 197 181 175 172 166 152 132 115 102 93 88 84 77 72 66 58 51
38 28 21 2 351 356 357 355 355 335 308 350 354 324 306 299 295 294 278 265 270 273 256 240 237 257 249 140 77 53 62 39 27 32 27 22 21 16 11 357 321 272 245 234 226 217 209 208 212 212 213 217 221 219 214 212 210 207 202 199 201 205 210 212 212 209 208 208 207 201 187 179 179 171 158 147 133 122 112 103 95 85 79 71 64 57
59 37 30 17 11 8 350 341 348 331 312 333 328 305 277 266 267 261 259 260 258 257 263 268 242 253 253 86 54 38 36 18 17 27 24 22 21 18 15 10 0 329 263 240 234 229 220 214 215 214 208 207 215 222 221 215 213 214 211 205 205 210 215 218 218 213 209 210 208 202 192 184 181 178 171 164 153 143 131 118 106 96 87 78 72 64
93 89 59 36 19 355 334 319 321 314 309 305 298 289 278 286 282 259 243 241 245 242 246 11 340 268 252 60 39 40 35 15 12 19 21 21 22 21 18 15 15 11 347 265 243 238 233 222 217 216 208 204 214 226 228 218 212 215 217 213 208 211 216 218 221 217 211 211 209 203 195 189 184 181 179 174 168 159 144 130 116 104 93 85 76 65
120 126 80 54 27 359 330 308 293 274 303 300 282 277 282 316 317 278 257 232 235 219 123 62 9 264 245 59 47 47 40 24 18 17 17 18 20 23 22 21 21 21 21 9 312 255 245 234 223 217 211 207 214 225 228 222 211 211 218 218 211 209 213 214 216 216 211 209 210 204 196 193 188 183 181 178 175 167 153 140 126 111 97 85 70 57
155 79 41 43 42 7 341 318 318 291 311 312 296 279 264 264 297 269 273 243 239 205 98 49 9 258 152 63 39 38 37 26 20 18 16 16 18 22 25 27 27 25 26 23 10 339 283 258 239 226 218 214 214 217 221 219 211 209 216 217 213 210 213 215 213 213 211 210 212 208 199 195 190 186 183 180 178 173 162 149 136 120 102 84 67 55
54 116 39 1 3 2 349 334 339 334 328 332 341 327 280 267 248 242 237 235 247 168 120 82 26 176 137 81 29 31 40 29 22 19 16 17 18 20 23 27 30 31 29 26 18 8 346 310 276 245 232 225 220 219 222 221 217 214 215 215 214 212 213 218 216 215 219 219 216 211 203 197 192 189 186 181 179 178 170 160 147 129 109 87 69 58
329 145 34 12 350 351 355 357 347 326 313 332 345 312 296 309 307 290 269 267 315 105 138 152 173 190 162 103 28 20 27 23 20 19 16 17 17 17 20 22 25 29 30 29 23 14 1 342 323 282 253 237 228 228 227 225 223 222 220 218 216 214 214 219 219 220 226 226 219 213 208 200 193 191 189 183 181 180 175 167 155 137 118 90 69 56
316 351 45 27 347 352 2 9 351 323 309 354 316 287 305 345 315 305 298 332 346 337 145 150 152 102 131 114 27 12 11 12 10 12 13 13 13 13 16 19 18 18 21 25 25 18 7 351 336 313 279 253 236 233 232 230 231 231 228 223 217 215 218 222 222 227 232 231 222 214 210 203 196 192 190 185 183 182 179 172 160 146 125 90 68 53
323 14 56 13 357 27 10 1 7 350 330 322 298 333 3 323 297 289 268 331 304 265 164 146 151 113 143 141 20 9 8 10 5 6 7 7 8 8 9 10 8 8 10 14 19 18 13 1 343 319 296 275 249 237 238 242 244 244 240 232 221 214 215 217 220 230 237 235 227 218 212 205 198 194 192 188 187 186 185 179 168 156 133 94 70 54
321 338 68 13 358 47 354 319 8 11 350 331 1 15 342 291 268 281 282 254 254 248 113 165 153 96 160 224 19 11 7 7 0 358 1 3 5 5 4 1 358 359 1 3 9 13 13 9 355 327 304 287 265 248 250 253 253 250 246 238 225 210 210 215 217 226 237 238 232 223 216 208 200 194 193 191 191 191 190 187 180 170 147 99 70 53
314 297 90 40 355 37 9 307 345 34 28 20 39 23 322 302 272 283 296 302 297 309 93 154 127 72 34 13 18 11 6 3 355 353 357 1 3 1 359 357 355 355 357 359 3 7 10 11 4 344 312 295 287 275 270 268 260 248 237 230 220 209 213 220 221 226 235 237 232 225 220 212 202 196 195 194 194 194 195 194 189 181 163 104 69 49
317 298 80 62 8 342 14 15 5 29 48 56 149 39 352 334 336 343 329 311 314 315 338 140 143 85 46 17 5 8 7 1 355 353 357 359 360 0 359 357 355 355 357 359 358 1 7 11 10 0 327 302 302 295 285 284 274 252 231 224 223 219 218 220 220 225 232 235 230 225 222 216 205 198 197 198 197 196 198 199 197 193 177 108 67 40
296 287 22 61 123 236 1 35 18 8 18 9 3 19 6 340 307 325 312 303 314 316 334 333 154 92 63 12 2 10 6 2 359 354 355 358 358 2 1 358 357 357 359 360 357 357 2 7 12 11 353 319 298 292 289 293 286 264 245 237 238 235 223 214 216 224 228 230 228 225 221 216 207 199 198 200 200 199 203 205 205 204 194 127 70 25
336 299 337 23 73 57 61 48 21 10 7 5 13 10 351 342 317 283 241 59 328 325 341 319 349 87 73 6 10 11 2 4 4 356 353 358 2 5 4 0 2 2 2 3 0 358 360 2 9 13 9 354 317 295 292 293 285 266 257 257 253 247 235 221 218 225 230 227 223 222 219 214 209 204 201 204 206 206 210 212 212 210 205 182 88 358
336 300 310 15 31 45 95 100 30 13 2 9 28 10 339 335 327 314 351 24 327 319 320 292 329 84 67 11 12 7 3 3 3 1 357 1 5 6 5 4 5 7 6 7 8 6 5 4 6 11 13 10 356 321 301 292 271 255 266 283 285 263 244 232 219 220 234 230 219 217 217 214 213 211 209 210 213 213 214 215 215 215 212 207 237 308
290 296 302 170 112 124 152 164 190 278 308 8 25 4 342 335 334 330 338 335 318 2 330 280 63 92 60 12 9 6 7 4 5 7 4 6 7 2 0 1 3 7 8 11 14 13 11 11 10 10 11 13 13 358 325 297 273 274 277 280 288 270 241 236 220 210 226 229 220 217 218 216 216 216 214 216 220 222 219 217 217 217 214 215 244 281
311 338 321 293 205 165 182 195 199 215 333 14 8 351 346 333 307 300 308 290 265 18 339 316 40 80 67 14 9 5 4 7 11 10 7 9 7 359 357 356 356 0 5 10 15 16 16 17 16 14 12 13 18 18 4 334 290 290 286 270 275 281 259 247 232 214 219 223 220 219 218 215 216 219 219 221 224 225 223 220 218 216 214 218 243 271
307 356 342 327 345 7 350 7 35 347 341 10 7 354 355 341 305 285 280 265 191 56 355 346 25 50 44 14 11 10 4 5 10 9 11 13 8 3 360 356 356 358 1 6 9 11 15 18 20 20 16 13 16 23 23 13 354 321 303 285 280 284 277 264 252 234 225 223 223 225 226 221 217 219 223 225 228 227 223 221 219 216 215 219 237 262
278 20 6 347 353 357 357 15 25 341 323 336 17 8 10 357 324 301 290 319 18 30 86 60 357 335 8 12 8 10 3 358 4 6 8 9 8 7 5 3 3 1 0 2 4 9 13 15 19 21 21 17 14 21 29 28 26 20 349 318 289 263 253 254 258 252 240 233 232 233 235 229 220 219 222 224 228 227 221 220 219 216 215 220 234 253
261 46 23 350 360 1 349 1 7 326 332 343 349 2 13 3 341 339 350 355 344 309 116 69 351 325 7 11 359 2 356 350 358 1 360 1 2 2 3 6 8 7 5 3 3 8 11 11 14 15 18 19 15 14 20 22 25 27 21 6 329 265 247 246 254 255 246 239 237 235 236 233 227 226 223 221 224 224 218 219 220 218 218 221 232 250
287 23 50 297 340 9 319 281 158 132 116 144 286 359 17 10 5 14 9 346 336 333 18 32 350 342 10 3 353 357 349 342 347 350 350 354 357 357 356 359 4 7 7 6 4 4 4 6 7 8 12 13 14 14 12 11 15 16 19 22 13 316 270 258 255 253 245 239 236 234 235 235 234 233 227 223 223 222 218 218 221 223 223 222 230 247
299 63 120 247 274 28 327 202 170 170 158 157 176 305 341 351 10 18 6 348 346 5 19 352 330 358 21 3 348 345 339 335 337 337 342 350 352 353 352 352 355 359 360 1 3 1 359 359 359 1 4 3 6 9 9 11 14 13 17 23 24 7 312 274 261 254 247 240 235 233 236 237 236 237 233 226 223 222 221 220 221 224 224 222 228 242
298 53 136 232 256 66 106 185 183 183 166 146 152 166 250 283 305 321 329 320 301 344 5 316 290 21 33 360 341 335 333 334 336 338 339 344 347 347 348 349 349 349 350 351 353 354 355 354 353 355 356 355 356 356 358 3 5 6 10 13 15 10 348 310 279 264 251 243 238 234 233 234 236 241 239 230 225 223 223 222 221 224 226 224 230 242
307 238 161 233 259 118 146 197 187 195 250 244 214 190 208 268 290 303 302 291 287 307 318 292 288 13 6 343 333 334 336 336 338 341 338 338 341 342 343 346 346 345 345 345 346 347 348 348 348 348 349 349 350 347 346 347 349 354 357 357 358 355 350 341 313 287 261 250 245 239 235 236 240 242 241 235 228 224 224 223 221 223 227 228 233 242
321 285 211 258 272 183 154 211 211 231 262 258 203 164 181 247 297 293 273 258 254 267 296 317 347 355 338 331 332 334 338 338 335 334 333 333 337 338 339 341 343 343 343 343 343 343 345 344 342 342 343 345 345 343 341 338 336 340 347 349 347 343 340 334 323 311 279 258 253 248 243 241 243 243 240 237 232 226 224 223 221 222 226 230 234 239
307 294 327 306 283 286 137 197 229 249 268 283 106 115 189 273 291 293 283 269 251 246 277 314 332 334 329 331 333 332 336 336 329 327 332 336 337 338 340 341 343 344 344 343 343 343 343 342 340 339 340 341 340 340 342 339 331 328 335 342 344 345 343 335 330 328 304 271 259 255 250 246 247 249 240 234 235 231 225 222 222 224 226 232 237 236
287 292 311 253 283 310 143 198 237 260 231 117 121 124 82 340 295 296 292 273 250 247 260 283 314 332 332 327 326 327 331 332 329 338 355 354 352 348 344 344 346 345 345 345 344 344 343 342 341 339 339 339 340 339 339 338 332 324 325 330 335 343 350 352 350 343 321 289 265 254 252 250 252 251 242 238 242 237 226 224 227 228 227 232 235 231
281 263 237 245 275 287 208 216 246 341 118 145 158 162 171 203 238 283 284 246 194 231 262 284 315 327 325 322 323 326 329 328 332 41 18 8 7 359 351 349 348 346 348 347 347 346 345 343 341 339 338 338 339 339 337 337 336 329 323 322 323 328 341 356 3 356 344 332 302 265 255 257 256 252 248 247 245 235 228 227 229 229 228 231 232 226
274 259 248 255 248 269 271 255 265 290 204 180 174 158 186 254 306 309 293 247 157 200 268 295 314 322 324 323 325 327 324 314 239 71 21 11 10 3 357 355 351 348 349 350 350 350 348 347 345 343 342 340 337 337 338 338 339 337 330 325 322 319 326 341 350 348 346 346 332 298 275 272 261 247 245 248 242 234 230 228 227 227 228 230 228 223
259 273 283 282 230 243 285 280 269 280 258 165 148 123 113 323 318 281 283 252 156 167 268 298 311 321 324 322 324 326 319 301 244 31 10 5 5 1 358 358 357 353 352 352 354 354 352 352 352 348 346 344 341 338 337 337 339 340 336 333 330 326 326 327 326 330 335 338 335 321 308 301 278 249 242 239 234 229 226 224 225 228 231 232 227 224
228 246 262 271 247 232 276 284 274 288 329 113 132 139 143 190 213 246 270 230 151 161 275 293 303 314 320 321 321 320 317 310 329 359 358 356 355 354 353 356 357 356 356 356 355 355 354 353 353 352 351 349 348 345 342 339 337 336 334 334 334 333 331 326 317 311 310 315 321 324 324 323 306 267 249 241 237 236 233 233 234 236 238 236 228 226
225 236 244 259 261 229 269 283 285 300 75 129 137 142 142 156 204 251 268 178 131 178 285 288 296 307 315 316 312 311 320 326 329 339 345 344 342 343 345 347 350 352 353 352 351 352 354 352 351 353 353 352 351 350 349 346 341 336 333 332 331 329 331 329 321 312 304 303 306 308 311 314 310 291 269 255 251 247 244 245 245 244 242 234 223 224
235 244 257 271 273 233 240 273 283 308 121 142 147 140 138 161 215 253 296 65 88 305 299 289 291 302 311 310 308 313 323 324 318 324 333 333 331 334 336 337 340 342 344 345 346 346 347 348 348 350 350 349 349 349 348 348 346 341 336 333 330 327 327 324 319 314 310 307 308 307 305 303 299 295 285 268 254 245 240 240 242 243 240 230 221 223
250 237 238 257 269 264 269 280 282 296 121 142 146 140 160 206 255 323 19 41 30 304 312 302 298 307 309 306 308 311 314 316 315 319 327 331 329 328 328 330 334 336 338 340 342 342 342 342 343 343 344 344 344 344 343 343 344 342 338 336 332 328 325 320 314 312 309 306 306 306 304 299 294 291 285 273 258 249 241 237 238 240 236 227 222 225
278 265 250 222 221 260 265 263 279 304 125 146 149 147 186 229 330 8 348 309 289 284 298 304 309 316 313 306 307 307 309 314 316 319 325 329 329 327 325 326 328 331 334 337 339 340 342 341 341 340 340 339 339 338 338 337 337 337 336 334 331 328 327 324 319 312 307 303 302 301 300 297 293 289 285 278 269 259 249 241 238 239 233 224 221 224
189 250 287 276 158 238 262 257 339 33 133 162 182 226 235 248 300 322 301 290 289 285 295 308 316 321 316 306 304 306 310 314 317 320 324 327 329 328 326 325 326 328 333 337 338 340 341 341 340 340 340 340 338 334 332 331 330 330 330 330 328 328 328 328 325 319 313 308 303 301 300 297 293 288 284 280 274 265 257 248 239 234 230 225 224 224
184 247 324 318 226 253 283 296 334 41 153 179 213 266 277 273 282 283 276 282 288 288 295 303 308 316 317 309 306 309 312 316 320 323 325 328 330 330 327 327 328 329 333 336 336 336 338 337 337 338 339 340 340 336 332 328 325 323 323 323 323 323 325 326 326 325 321 314 307 303 300 297 294 290 285 280 275 269 263 256 248 240 232 229 229 229
206 212 288 289 270 276 273 267 266 263 245 231 240 256 267 274 277 272 266 269 275 285 293 295 300 311 314 312 311 310 313 319 323 324 326 328 329 330 330 329 329 330 331 331 330 332 332 331 331 333 335 337 338 337 335 331 326 320 317 316 316 314 315 319 323 326 325 319 313 307 303 299 296 292 287 283 278 273 266 262 259 254 245 237 234 234
205 205 226 251 265 282 267 247 248 257 254 251 252 255 262 268 268 265 263 265 272 283 289 291 294 301 307 310 312 311 313 319 322 322 325 327 328 329 330 328 328 327 324 324 325 328 328 327 326 327 329 332 335 335 333 331 327 323 317 312 309 306 306 310 316 320 320 317 312 307 302 300 298 295 291 286 280 274 266 262 258 252 247 243 237 234
158 181 235 249 246 255 270 274 274 268 258 253 257 266 276 275 268 260 262 269 277 282 285 288 290 294 302 308 311 311 312 316 319 321 322 322 323 325 326 325 324 321 319 318 319 320 322 323 322 321 323 326 329 331 330 327 324 323 321 315 307 302 301 304 311 315 314 310 308 304 300 299 299 298 295 288 279 269 263 259 253 248 250 249 241 235
122 180 240 260 256 259 267 274 274 267 259 253 252 259 270 275 274 272 273 278 285 288 290 291 290 293 302 308 312 312 312 314 317 319 319 319 320 321 321 320 319 317 316 317 316 317 318 320 320 320 320 322 325 327 327 324 321 321 322 319 310 301 299 303 309 312 310 306 303 301 299 300 299 297 294 289 279 265 257 252 248 248 250 250 245 242
207 239 241 242 257 264 274 297 301 285 279 275 259 252 255 263 275 282 285 288 292 295 295 293 293 298 304 309 312 311 310 311 314 316 316 315 316 318 318 318 318 318 318 319 319 319 319 319 319 318 318 320 323 324 325 323 320 317 319 319 312 302 300 303 306 306 306 304 300 300 301 302 299 295 291 286 277 268 261 255 250 247 242 243 250 250
220 252 248 240 263 284 301 313 307 284 284 291 285 269 261 264 275 285 292 297 299 297 294 293 300 308 308 306 308 308 307 308 311 313 314 313 315 318 319 320 321 321 321 321 321 320 319 319 318 317 317 319 321 322 323 322 319 315 316 317 313 304 298 299 300 302 304 303 300 302 305 305 303 300 292 283 277 271 265 259 259 258 251 248 254 253